Dansville, NY

6:22 PM EST on February 25, 2017 (GMT -0500)
Dansville Municipal

Weather History for KDSV - October, 2013

Change the Weather History Date:

Tuesday, October 8, 2013

  Actual Average Record
Temperature  
Mean Temperature 54 °F -  
Max Temperature 64 °F 62 °F 86 °F (1963)
Min Temperature 43 °F 42 °F 26 °F (1954)
Degree Days  
Heating Degree Days 12    
Growing Degree Days 4 (Base 50)    
Moisture  
Dew Point 43 °F    
Average Humidity 76    
Maximum Humidity 100    
Minimum Humidity 41    
Precipitation  
Precipitation 0.00 in - - ()
Sea Level Pressure  
Sea Level Pressure 30.31 in    
Wind  
Wind Speed 2 mph (SE)    
Max Wind Speed 8 mph    
Max Gust Speed -    
Visibility 10 miles    
Events      
Averages and records for this station are not official NWS values.
T = Trace of Precipitation, MM = Missing Value Source: NWS Daily Summary

Daily Weather History Graph

Daily Weather History Graph

Search for Another Location

Airport or City:

Trip Planner

Search our weather history database for the weather conditions in past years. The results will help you decide how hot, cold, wet, or windy it might be!

Date:

Astronomy

Oct. 08, 2013 Rise Set
Actual Time 7:16 AM EDT 6:39 PM EDT
Civil Twilight 6:47 AM EDT 7:07 PM EDT
Nautical Twilight 6:15 AM EDT 7:40 PM EDT
Astronomical Twilight 5:42 AM EDT 8:13 PM EDT
Moon 11:13 AM EDT (10/8) 9:09 PM EDT (10/8)
Length of Visible Light 12h 20m
Length of Day
11h 23m
Waxing Crescent, 16% of the Moon is Illuminated
Oct 8
Waxing Crescent
Oct 11
First Quarter
Oct 18
Full
Oct 26
Last Quarter
Nov 3
New

Hourly Weather History & Observations

Time (EDT) Temp. Windchill Dew Point Humidity Pressure Visibility Wind Dir Wind Speed Gust Speed Precip Events Conditions
12:54 AM 46.9 °F - 45.0 °F 93% 30.13 in 10.0 mi Calm Calm - N/A   Clear
1:54 AM 48.0 °F - 46.0 °F 93% 30.15 in 10.0 mi Calm Calm - N/A   Clear
2:54 AM 46.0 °F - 45.0 °F 96% 30.17 in 10.0 mi Calm Calm - N/A   Partly Cloudy
3:54 AM 45.0 °F - 44.1 °F 97% 30.19 in 10.0 mi Calm Calm - N/A   Clear
4:54 AM 45.0 °F - 43.0 °F 93% 30.21 in 10.0 mi Calm Calm - N/A   Clear
5:54 AM 44.1 °F 42.5 °F 42.1 °F 93% 30.24 in 10.0 mi SE 3.5 mph - N/A   Clear
6:54 AM 43.0 °F 41.3 °F 42.1 °F 97% 30.27 in 10.0 mi SE 3.5 mph - N/A   Clear
7:54 AM 43.0 °F - 43.0 °F 100% 30.30 in 10.0 mi Calm Calm - N/A   Clear
8:54 AM 48.0 °F - 45.0 °F 89% 30.32 in 10.0 mi SSE 4.6 mph - N/A   Clear
9:54 AM 54.0 °F - 46.0 °F 75% 30.35 in 10.0 mi Calm Calm - N/A   Clear
10:54 AM 57.9 °F - 44.1 °F 60% 30.35 in 10.0 mi Calm Calm - N/A   Clear
11:54 AM 59.0 °F - 44.1 °F 58% 30.35 in 10.0 mi Variable 4.6 mph - N/A   Mostly Cloudy
12:54 PM 60.1 °F - 42.1 °F 51% 30.36 in 10.0 mi NW 8.1 mph - N/A   Mostly Cloudy
1:54 PM 63.0 °F - 43.0 °F 48% 30.35 in 10.0 mi NW 5.8 mph - N/A   Mostly Cloudy
2:54 PM 64.0 °F - 42.1 °F 45% 30.34 in 10.0 mi North 5.8 mph - N/A   Partly Cloudy
3:54 PM 64.0 °F - 41.0 °F 43% 30.34 in 10.0 mi Variable 3.5 mph - N/A   Clear
4:54 PM 64.0 °F - 39.9 °F 41% 30.33 in 10.0 mi Calm Calm - N/A   Clear
5:54 PM 61.0 °F - 42.1 °F 50% 30.34 in 10.0 mi NNW 3.5 mph - N/A   Clear
6:54 PM 55.9 °F - 45.0 °F 67% 30.35 in 10.0 mi Calm Calm - N/A   Clear
7:54 PM 51.1 °F - 44.1 °F 77% 30.38 in 10.0 mi SSE 3.5 mph - N/A   Clear
8:54 PM 48.0 °F - 44.1 °F 86% 30.39 in 10.0 mi Calm Calm - N/A   Clear
9:54 PM 46.0 °F - 43.0 °F 89% 30.41 in 10.0 mi Calm Calm - N/A   Clear
10:54 PM 46.0 °F 44.8 °F 43.0 °F 89% 30.40 in 10.0 mi South 3.5 mph - N/A   Clear
11:54 PM 45.0 °F - 43.0 °F 93% 30.41 in 10.0 mi Calm Calm - N/A   Clear